Location: Kawakawa
(35.3830°S, 174.0670°E)
Time: 19:05:20
(UTC+13:00)

ADEOS Rocket - Pass Details

Date: 24 January 2019
Orbit: 859 x 1307 km, 98.7° (Epoch: 21 February)

Event Time Altitude Azimuth Distance (km) Brightness Sun altitude
Exits shadow 23:05:49 26° 330° (NNW) 1,700 4.1 -24.8°
Maximum altitude 23:08:27 40° 279° (W) 1,274 3.8 -25.2°
Drops below altitude 10° 23:13:38 10° 210° (SSW) 2,523 6.2 -25.8°
Sets 23:16:10 0° 202° (SSW) 3,470 7.1 -26.2°
